Simultaneous Nadir Overpasses (SNOs) Predictions

Prediction of SNOs over PacNW region [( 10.00, 139.50) to ( 22.70, 165.60)] between NOAA-19 and NPP Satellites:

Table of predicted SNOs over PacNW region for the next 30.0 days since TLE Epoch: 11/30/2012
Index Date (NOAA-19) Time (NOAA-19) NOAA-19 Lat,Lon Date (NPP) Time (NPP) NPP Lat,Lon Distance(km) Time Diff (sec)
1 12/09/2012 15:10:39 22.60, 159.67 12/09/2012 15:14:14 27.15, 156.70 587.36 215
2 12/10/2012 02:26:12 19.54, 163.91 12/10/2012 02:27:06 18.88, 161.00 315.19 54
3 12/10/2012 04:06:38 13.79, 139.78 12/10/2012 04:06:58 13.14, 136.98 311.57 20
4 12/10/2012 15:03:12 10.64, 159.50 12/10/2012 14:59:46 11.09, 157.54 219.98 206
5 12/22/2012 03:37:24 11.19, 147.56 12/22/2012 03:40:41 10.34, 144.00 399.94 197
6 12/22/2012 16:14:19 19.17, 143.19 12/22/2012 16:13:19 19.73, 140.58 280.60 60
7 12/23/2012
